[[{"header":{"parameterUnit":"m.s-1","parameterCategory":1,"la1":30.2991,"la2":30.254,"lo1":-89.0895,"lo2":-89.0444,"dy":0.0017,"dx":0.0017,"nx":28,"ny":28,"refTime":"2025-02-04T09:00:00:Z","depth":0,"parameterNumber":2,"parameterNumberName":"U-component_of_WINDS"},"data":[0,0,0,0,0,0,0,0,0,0,0,0,0,0,0,0,0,0,0,0,0,0,0,0,0,0,0,0,0,0,0,0,0,0,0,0,0,0,0,0,0,0,0,0,0,0,0,0,0,0,0,0,0,0,0,0,0,0,0.1805,0.1805,0,0.1842,0.1842,0.1842,0.1872,0.1872,0.1872,0.1872,0.1907,0.1907,0.1908,0,0,0,0,0,0,0,0,0,0,0,0,0,0.1756,0.1757,0.1805,0.1805,0.1806,0.1841,0.1842,0.1842,0.1872,0.1872,0.1872,0.1873,0.1907,0.1907,0.1908,0,0,0,0,0,0,0,0,0,0,0,0,0,0.1784,0.1757,0.1805,0.1825,0.1827,0.1841,0.1842,0.1843,0.1871,0.1872,0.1872,0.1873,0.1906,0.1907,0.1908,0.1905,0,0,0.1911,0.1911,0,0,0,0,0,0,0,0,0.1782,0.1785,0.1821,0.1823,0.1826,0.1853,0.1837,0.1863,0.1871,0.1854,0.1872,0.1873,0.1888,0.1891,0.1896,0.1906,0.1908,0.1911,0.1912,0.1912,0.1912,0,0,0,0,0,0,0,0.178,0.1784,0.1819,0.1822,0.1824,0.1831,0.1835,0.1842,0.1868,0.1856,0.1858,0.1862,0.1889,0.1895,0.1897,0.1908,0.1911,0.1912,0.1912,0.1913,0.1917,0.1917,0,0,0,0,0,0,0.1776,0.1782,0.1818,0.182,0.1805,0.1831,0.1836,0.1843,0.1868,0.1872,0.1862,0.1863,0.1894,0.1896,0.1899,0.1896,0.1912,0.1913,0.1913,0.1917,0.1917,0.1916,0,0,0,0,0,0,0.1774,0.1779,0.1817,0.1802,0.1807,0.1831,0.184,0.1844,0.185,0.1873,0.1877,0.1863,0.1894,0.1897,0.1903,0.1898,0.1913,0.1914,0.1918,0.1917,0.1917,0.1891,0,0,0,0,0,0,0.1773,0.1778,0.1778,0.1802,0.1808,0.1821,0.1839,0.1844,0.1852,0.1854,0.1875,0.1879,0.1895,0.1902,0.1904,0.1899,0.1915,0.1919,0.1918,0.1917,0.1893,0.189,0.1887,0,0,0,0,0,0.1771,0.1769,0.1778,0.1782,0.1808,0.1821,0.1825,0.1843,0.1851,0.1851,0.1865,0.1879,0.1898,0.1902,0.1905,0.1901,0.1919,0.1918,0.1917,0.1894,0.1891,0.1888,0,0,0,0,0,0,0.1742,0.1772,0.1782,0.1788,0.1802,0.1826,0.1826,0.1839,0.185,0.1852,0.1874,0.1878,0.1881,0.1891,0.1895,0.1898,0.191,0.191,0.1892,0.1889,0.1886,0.1883,0.1916,0,0,0,0,0,0.1737,0.1746,0.1771,0.1773,0.178,0.1802,0.1808,0.1821,0.1836,0.1842,0.1857,0.187,0.1879,0.1884,0.1894,0.1894,0.1899,0.1893,0.189,0.1888,0.1887,0.1887,0.1885,0.1913,0.1913,0.1913,0,0,0.1725,0.1742,0.1747,0.1768,0.178,0.1788,0.1806,0.1814,0.1819,0.1842,0.1849,0.1861,0.1876,0.188,0.1882,0.1888,0.188,0.1886,0.1884,0.1885,0.1886,0.1883,0.1881,0.1912,0.1912,0.1913,0,0,0.1708,0.1722,0.1725,0.1738,0.1757,0.1771,0.1772,0.1794,0.1803,0.181,0.1828,0.1834,0.1849,0.186,0.1867,0.1853,0.1866,0.1856,0.1842,0.1842,0.184,0.1838,0.1833,0.183,0.1855,0.1855,0.1855,0,0.169,0.1704,0.1725,0.1732,0.174,0.1762,0.1765,0.1776,0.1796,0.1801,0.1808,0.1828,0.184,0.1846,0.1842,0.1848,0.1848,0.1853,0.1839,0.1837,0.1835,0.1831,0.1829,0.1854,0.1854,0.1854,0.1854,0,0.1681,0.169,0.1691,0.1711,0.172,0.1724,0.1745,0.1751,0.1763,0.1776,0.1783,0.1799,0.1812,0.1814,0.1826,0.1821,0.1824,0.1835,0.1847,0.1831,0.1827,0.1825,0.1852,0.1852,0.1853,0.1853,0,0,0.1647,0.1679,0.1679,0.1689,0.1711,0.1718,0.1723,0.1737,0.1741,0.1754,0.1758,0.1771,0.178,0.1789,0.1802,0.1802,0.1789,0.1812,0.1813,0.1807,0.1785,0.1777,0.1774,0.1798,0.1798,0.1797,0.1783,0,0.1633,0.1645,0.1664,0.1669,0.1677,0.1699,0.1703,0.1716,0.1729,0.1737,0.175,0.1758,0.1771,0.1776,0.1777,0.1791,0.1785,0.1792,0.1801,0.1801,0.1796,0.1772,0.1764,0.175,0.1782,0.1781,0.1781,0,0.1618,0.1632,0.1638,0.166,0.1664,0.1668,0.1681,0.1689,0.1704,0.1713,0.1722,0.1737,0.1742,0.1753,0.1761,0.1765,0.1769,0.1777,0.1777,0.1778,0.179,0.1772,0.1746,0.1743,0.1779,0.1779,0.1779,0,0.1592,0.1611,0.1618,0.1625,0.1651,0.1653,0.1663,0.1679,0.1686,0.1698,0.1702,0.1714,0.172,0.1728,0.1745,0.1752,0.175,0.1763,0.1757,0.1756,0.1755,0.1755,0.1729,0.1759,0.1759,0.1759,0.1759,0,0.1575,0.1577,0.1606,0.161,0.1614,0.1635,0.1637,0.165,0.1664,0.1669,0.1688,0.1692,0.1714,0.1721,0.1734,0.1738,0.174,0.1747,0.175,0.1745,0.1744,0.1748,0.175,0.1758,0.1758,0.1758,0.1758,0,0.1546,0.1566,0.1574,0.1598,0.1603,0.1605,0.1625,0.1628,0.1642,0.1649,0.1652,0.1672,0.1681,0.1699,0.1712,0.1721,0.1722,0.1728,0.1717,0.1719,0.1712,0.1712,0.1687,0.1684,0.1716,0.1715,0.1715,0,0.1533,0.1536,0.1561,0.1566,0.1576,0.1585,0.1593,0.1613,0.162,0.1638,0.1639,0.165,0.1659,0.1672,0.1688,0.1698,0.1704,0.1695,0.1706,0.1701,0.1704,0.1703,0.1703,0.1692,0.1692,0.1691,0.1691,0,0.1509,0.1518,0.1529,0.1543,0.1552,0.1563,0.1576,0.1579,0.1602,0.1608,0.1619,0.1626,0.164,0.165,0.1663,0.1672,0.1685,0.1687,0.1687,0.1681,0.1675,0.1678,0.171,0.1688,0.1688,0.1688,0.1689,0.1689,0.1488,0.1491,0.1509,0.152,0.1532,0.1543,0.1548,0.1562,0.1571,0.1585,0.1596,0.1605,0.162,0.1638,0.1647,0.1653,0.1659,0.1658,0.1658,0.1657,0.1655,0.1674,0.1655,0.1655,0.1656,0.1656,0.1656,0,0.1464,0.1476,0.1486,0.1504,0.1512,0.1525,0.1539,0.1545,0.1553,0.1566,0.1575,0.1586,0.1596,0.1612,0.1623,0.1625,0.1631,0.1627,0.1627,0.1629,0.1649,0.1648,0.1622,0.1622,0.1622,0.1622,0.1622,0.1622,0.1452,0.1459,0.147,0.1482,0.1495,0.1504,0.1511,0.1521,0.1532,0.1544,0.1552,0.1563,0.1577,0.1589,0.1598,0.1603,0.1606,0.16,0.1606,0.1624,0.1627,0.163,0.163,0.16,0.16,0.1585,0.1585,0.1585]},{"header":{"parameterUnit":"m.s-1","parameterCategory":1,"la1":30.2991,"la2":30.254,"lo1":-89.0895,"lo2":-89.0444,"dy":0.0017,"dx":0.0017,"nx":28,"ny":28,"refTime":"2025-02-04T09:00:00:Z","depth":0,"parameterNumber":3,"parameterNumberName":"V-component_of_WINDS"},"data":[0,0,0,0,0,0,0,0,0,0,0,0,0,0,0,0,0,0,0,0,0,0,0,0,0,0,0,0,0,0,0,0,0,0,0,0,0,0,0,0,0,0,0,0,0,0,0,0,0,0,0,0,0,0,0,0,0,0,0.6343,0.6343,0,0.6365,0.6365,0.6365,0.6363,0.6363,0.6363,0.6362,0.6385,0.6385,0.6386,0,0,0,0,0,0,0,0,0,0,0,0,0,0.6299,0.63,0.6343,0.6343,0.6344,0.6365,0.6365,0.6365,0.6363,0.6363,0.6363,0.6362,0.6384,0.6385,0.6386,0,0,0,0,0,0,0,0,0,0,0,0,0,0.6319,0.63,0.6343,0.6345,0.6346,0.6365,0.6365,0.6366,0.6363,0.6363,0.6362,0.6362,0.6384,0.6385,0.6387,0.6405,0,0,0.6391,0.6391,0,0,0,0,0,0,0,0,0.6318,0.6321,0.6345,0.6345,0.6346,0.6361,0.6358,0.6379,0.6364,0.6357,0.6362,0.6362,0.6377,0.6379,0.6384,0.6406,0.6407,0.6391,0.6392,0.6392,0.6393,0,0,0,0,0,0,0,0.6317,0.632,0.6352,0.6345,0.6346,0.6345,0.6347,0.6362,0.6369,0.6357,0.6357,0.636,0.6377,0.6383,0.6385,0.6408,0.6391,0.6392,0.6393,0.6393,0.6445,0.6446,0,0,0,0,0,0,0.6315,0.6319,0.6351,0.6352,0.633,0.6346,0.6349,0.6356,0.6369,0.6371,0.636,0.636,0.6381,0.6383,0.6385,0.6408,0.6392,0.6394,0.6394,0.6445,0.6445,0.6446,0,0,0,0,0,0,0.6314,0.6318,0.635,0.6336,0.634,0.6347,0.6356,0.6357,0.6363,0.6371,0.6373,0.6365,0.6381,0.6384,0.64,0.6409,0.6394,0.6395,0.6444,0.6445,0.6446,0.6454,0,0,0,0,0,0,0.6313,0.6318,0.6325,0.6336,0.634,0.6365,0.6357,0.6358,0.6365,0.6365,0.6376,0.6377,0.638,0.6398,0.6402,0.6411,0.6397,0.6443,0.6444,0.6445,0.6453,0.6455,0.6456,0,0,0,0,0,0.6311,0.6327,0.6325,0.6329,0.635,0.6365,0.6368,0.6371,0.6366,0.6373,0.6379,0.6377,0.6407,0.64,0.6404,0.6413,0.6443,0.6444,0.6445,0.6452,0.6454,0.6456,0,0,0,0,0,0,0.6317,0.6328,0.6327,0.6346,0.6355,0.6365,0.6375,0.6374,0.6384,0.6383,0.6386,0.6389,0.6406,0.6411,0.6403,0.6431,0.6424,0.6426,0.6428,0.643,0.6432,0.6431,0.6398,0,0,0,0,0,0.632,0.6332,0.6341,0.6357,0.6362,0.6367,0.6374,0.6376,0.6385,0.6388,0.6395,0.6404,0.6415,0.6423,0.6434,0.6453,0.6455,0.6461,0.6463,0.6464,0.6466,0.6477,0.6479,0.645,0.645,0.645,0,0,0.6328,0.6335,0.6343,0.6359,0.6366,0.6377,0.637,0.6384,0.6392,0.639,0.6407,0.6411,0.6421,0.6439,0.6448,0.6444,0.6475,0.6466,0.6467,0.6468,0.6478,0.6481,0.6483,0.6451,0.6451,0.6451,0,0,0.6348,0.6355,0.6369,0.6376,0.6386,0.6389,0.6392,0.6402,0.6406,0.6422,0.642,0.643,0.645,0.6457,0.6463,0.6484,0.6483,0.6487,0.6498,0.6507,0.651,0.6512,0.652,0.6522,0.6489,0.6489,0.6489,0,0.6357,0.6375,0.6376,0.6389,0.6396,0.6394,0.6408,0.6415,0.6428,0.6433,0.6428,0.6452,0.6459,0.6478,0.6483,0.6488,0.6492,0.6487,0.6509,0.6511,0.6513,0.6521,0.6524,0.649,0.649,0.649,0.649,0,0.6384,0.6397,0.6407,0.6419,0.6427,0.6441,0.6444,0.6452,0.6452,0.6455,0.6472,0.6479,0.6491,0.6495,0.6496,0.6515,0.6512,0.6509,0.6502,0.6517,0.6524,0.6527,0.649,0.649,0.649,0.649,0,0,0.6411,0.6423,0.6427,0.6432,0.6442,0.6452,0.6465,0.6476,0.6483,0.6491,0.6503,0.6518,0.6515,0.6521,0.6522,0.6531,0.6547,0.6526,0.6526,0.653,0.6568,0.6572,0.6575,0.6546,0.6546,0.6547,0.6568,0,0.6433,0.6456,0.6457,0.6478,0.6489,0.6487,0.6498,0.6505,0.6508,0.6518,0.6521,0.6533,0.6527,0.6531,0.6539,0.6543,0.6555,0.6542,0.6556,0.6557,0.6555,0.6579,0.6583,0.6603,0.657,0.6571,0.6571,0,0.6462,0.6471,0.6493,0.6501,0.6506,0.6516,0.6526,0.6535,0.6543,0.6545,0.6552,0.6551,0.6564,0.6555,0.6573,0.6564,0.6569,0.6572,0.6573,0.6575,0.6566,0.6583,0.6609,0.6613,0.6576,0.6575,0.6575,0,0.648,0.6497,0.6513,0.6517,0.6527,0.6534,0.6538,0.6545,0.6552,0.656,0.6565,0.6575,0.658,0.6588,0.659,0.6583,0.6607,0.6599,0.661,0.661,0.6616,0.6616,0.6645,0.6618,0.6618,0.6618,0.6618,0,0.6505,0.6519,0.6521,0.6531,0.6546,0.6546,0.6561,0.6565,0.6571,0.6581,0.6578,0.6588,0.6589,0.6599,0.66,0.6614,0.6617,0.6618,0.6619,0.662,0.6619,0.6624,0.6624,0.6618,0.6618,0.6618,0.6618,0,0.6529,0.6531,0.6547,0.6554,0.6556,0.6567,0.6573,0.6582,0.6584,0.6596,0.6599,0.6603,0.6614,0.6616,0.6629,0.663,0.6647,0.6646,0.6645,0.6645,0.6656,0.6655,0.669,0.6695,0.6664,0.6664,0.6664,0,0.6546,0.6556,0.6563,0.657,0.6574,0.6585,0.6591,0.6591,0.6598,0.6607,0.6615,0.6625,0.6634,0.6651,0.6655,0.6665,0.6664,0.6675,0.6666,0.6666,0.6665,0.6665,0.6666,0.6678,0.6678,0.6679,0.6679,0,0.6575,0.6575,0.6585,0.6594,0.6602,0.6609,0.6616,0.6621,0.6622,0.663,0.6641,0.6647,0.666,0.6671,0.668,0.6684,0.6682,0.6681,0.6685,0.6686,0.6686,0.6687,0.6651,0.6681,0.6681,0.6681,0.6681,0.668,0.6597,0.6606,0.6612,0.6622,0.6627,0.6634,0.6642,0.6645,0.6654,0.6665,0.6663,0.6676,0.6682,0.6694,0.6698,0.6708,0.6704,0.6709,0.671,0.6711,0.6713,0.6683,0.6709,0.6709,0.6709,0.6709,0.6709,0,0.6627,0.663,0.664,0.6649,0.6657,0.6653,0.666,0.6667,0.6678,0.6683,0.6692,0.6704,0.6714,0.6717,0.6727,0.6733,0.6733,0.6736,0.6736,0.6737,0.6715,0.6712,0.6737,0.6737,0.6737,0.6737,0.6737,0.6737,0.6644,0.6659,0.6659,0.6676,0.668,0.6691,0.6696,0.6701,0.6706,0.672,0.6728,0.673,0.6734,0.6744,0.6753,0.6753,0.6757,0.6762,0.6762,0.6742,0.6739,0.6736,0.6733,0.6762,0.6762,0.6783,0.6784,0.6784]}]]